Overview Statistics Trail Chart Weather Telemetry Raw packets
 

This is the latest recevied weather packets stored in our database for station/object HB9DDE-10. If no packets are shown the sender has not sent any weather packets the latest 10 day(s).

<< 109 110 111 112 113 >>
Time Temp. Humidity Pressure Rain* Wind** Luminosity Snow
1787745142 29.44° C 48% 1017.1 hPa 0 mm - - -
1787744855 28.89° C 51% 1017.3 hPa 0 mm - - -
1787744546 28.89° C 52% 1017.3 hPa 0 mm - - -
1787744257 28.33° C 54% 1017.3 hPa 0 mm - - -
1787743945 28.33° C 53% 1017.2 hPa 0 mm - - -
1787743656 28.33° C 53% 1017.2 hPa 0 mm - - -
1787743348 27.78° C 54% 1017.2 hPa 0 mm - - -
1787743042 28.33° C 54% 1017.3 hPa 0 mm - - -
1787742756 28.33° C 55% 1017.3 hPa 0 mm - - -
1787742445 27.78° C 55% 1017.4 hPa 0 mm - - -
1787742155 27.22° C 55% 1017.5 hPa 0 mm - - -
1787741846 27.22° C 57% 1017.6 hPa 0 mm - - -
1787741554 26.67° C 59% 1017.6 hPa 0 mm - - -
1787741246 26.67° C 56% 1017.7 hPa 0 mm - - -
1787740956 26.67° C 58% 1017.7 hPa 0 mm - - -
1787740655 26.67° C 56% 1017.7 hPa 0 mm - - -
1787740342 26.67° C 57% 1017.7 hPa 0 mm - - -
1787740052 26.67° C 60% 1017.7 hPa 0 mm - - -
1787739741 26.11° C 59% 1017.7 hPa 0 mm - - -
1787739454 26.11° C 60% 1017.7 hPa 0 mm - - -
1787739145 26.11° C 60% 1017.8 hPa 0 mm - - -
1787738858 26.11° C 63% 1017.9 hPa 0 mm - - -
1787738546 26.11° C 61% 1017.8 hPa 0 mm - - -
1787738241 25.56° C 65% 1017.9 hPa 0 mm - - -
1787737951 25.56° C 66% 1017.9 hPa 0 mm - - -

* Rain latest hour (hover to see other rain measurements)
** Current wind speed in m/s (hover to see current wind gust speed)